Location: Unspecified
(48.8582°N, 2.2947°E)
Time: 19:47:44
(UTC+02:00)

ISS - Pass Details

Date: 02 April 2019
Orbit: 408 x 410 km, 51.6° (Epoch: 25 April)

Event Time Altitude Azimuth Distance (km) Brightness Sun altitude
Rises 20:53:34 0° 285° (WNW) 2,339 3.0 -5.8°
Reaches altitude 10° 20:55:41 10° 290° (WNW) 1,476 0.9 -6.1°
Maximum altitude 20:58:57 56° 9° (N) 492 -3.4 -6.7°
Drops below altitude 10° 21:02:13 10° 90° (E) 1,473 -1.6 -7.2°
Enters shadow 21:02:25 - 90° (E) 1,554 -1.5 -7.2°
